EST,Max TemperatureF,Mean TemperatureF,Min TemperatureF,Max Dew PointF,MeanDew PointF,Min DewpointF,Max Humidity, Mean Humidity, Min Humidity, Max Sea Level PressureIn, Mean Sea Level PressureIn, Min Sea Level PressureIn, Max VisibilityMiles, Mean VisibilityMiles, Min VisibilityMiles, Max Wind SpeedMPH, Mean Wind SpeedMPH, Max Gust SpeedMPH,PrecipitationIn, CloudCover, Events, WindDirDegrees
2013-1-1,52,50,48,47,42,33,93,75,56,30.09,30.02,29.94,10,9,3,15,7,18,0.12,7,Rain,237
2013-1-2,49,45,41,47,34,25,93,76,58,30.21,30.06,29.96,10,8,3,16,9,21,0.17,6,Rain,18
2013-1-3,44,37,30,33,29,27,85,69,53,30.25,30.22,30.17,10,10,10,12,5,14,0.00,3,,17
2013-1-4,48,38,28,32,29,25,92,67,46,30.28,30.22,30.16,10,9,5,12,6,,0.00,0,,251
2013-1-5,51,41,30,33,29,24,79,59,39,30.39,30.32,30.24,10,10,10,10,5,14,0.00,0,,252
2013-1-6,51,45,39,33,30,19,79,58,37,30.27,30.16,30.08,10,10,9,12,6,14,T,7,Rain,222
2013-1-7,54,44,33,33,31,25,82,60,37,30.47,30.35,30.15,10,10,9,17,6,21,0.00,0,,356
2013-1-8,62,46,30,34,32,27,100,64,27,30.47,30.42,30.38,10,6,0,14,3,23,0.00,1,,104
2013-1-9,72,56,39,34,32,30,79,51,22,30.44,30.38,30.34,10,5,0,12,3,15,0.00,0,,247
2013-1-10,59,47,35,34,32,30,82,59,36,30.56,30.49,30.39,10,10,10,20,6,23,0.00,0,,39
2013-1-11,69,53,37,60,48,23,90,58,25,30.49,30.26,30.14,10,7,0,15,6,17,T,5,Fog-Rain,154
2013-1-12,63,60,56,59,56,53,97,88,78,30.18,30.15,30.12,10,3,0,9,4,13,0.00,8,Fog,232
2013-1-13,68,59,49,60,52,46,93,87,81,30.17,30.14,30.09,10,4,0,15,5,39,0.00,5,Fog,151
2013-1-14,79,67,55,60,58,53,90,72,54,30.17,30.14,30.11,10,10,2,16,7,21,0.00,2,,207
2013-1-15,58,54,49,50,47,45,89,83,77,30.23,30.20,30.09,10,6,0,18,9,22,T,8,Fog-Rain,18
2013-1-16,56,53,49,52,49,46,93,88,83,30.09,30.02,29.98,10,5,0,15,4,18,0.03,8,Fog-Rain,333
2013-1-17,55,48,40,52,45,36,93,88,82,30.06,30.01,29.92,10,5,2,28,14,37,0.41,8,Rain,29
2013-1-18,48,39,29,36,30,22,89,63,37,30.56,30.37,30.02,10,10,6,23,10,28,0.08,2,Rain,340
2013-1-19,58,43,27,43,33,23,85,62,39,30.53,30.36,30.15,10,10,9,13,4,15,0.00,0,,197
2013-1-20,66,54,41,41,37,31,82,57,31,30.14,30.04,29.94,10,10,10,20,9,24,0.00,0,,236
2013-1-21,60,50,39,41,35,24,71,57,42,30.09,29.98,29.84,10,10,10,18,7,25,0.00,0,,125
2013-1-22,48,36,23,30,11,1,70,46,21,30.29,30.14,29.91,10,10,10,22,11,29,0.00,0,,306
2013-1-23,37,29,21,17,9,2,68,47,25,30.38,30.28,30.12,10,10,10,17,6,22,0.00,2,,286
2013-1-24,39,32,24,27,16,5,64,48,32,30.54,30.26,29.95,10,10,10,33,15,39,0.00,4,,323
2013-1-25,33,26,19,27,19,6,85,62,38,30.53,30.30,30.11,10,6,0,14,5,16,0.28,5,Fog-Snow,296
2013-1-26,39,33,27,29,26,23,85,75,64,30.44,30.25,30.12,10,9,4,14,5,17,0.00,5,,298
2013-1-27,43,36,29,28,23,20,85,62,39,30.60,30.53,30.44,10,9,5,14,6,18,0.00,1,,11
2013-1-28,51,40,28,45,34,22,82,71,59,30.54,30.40,30.20,10,10,5,14,5,35,0.01,6,Rain,201
2013-1-29,75,63,51,54,50,47,83,66,49,30.19,30.15,30.11,10,9,7,18,10,23,0.00,2,,218
2013-1-30,77,68,58,61,59,54,90,74,58,30.09,29.85,29.55,10,9,5,28,16,41,0.00,3,,189
2013-1-31,72,56,40,63,39,22,78,54,30,30.02,29.70,29.39,10,9,2,36,18,49,0.30,3,Rain,252